RH
31 34 36 36 37 39 41 42 42 42 44 47 49 50 50 51 51 51 51 49 45 42 41 45 45 37 27 22 20 18 17 17 17 19 22 27 33 41 50 60 69 75 80 87 94 98 99 100 100 100 100 100 100 100 98 96 97 94 80 63 53 49 45 41 36 29 25 22 20 17 16 16 15 15 15 14 14 13 12 11 10 10 10 9 9
35 38 39 40 40 41 41 42 43 45 50 55 56 54 53 53 52 52 53 52 51 49 48 50 49 39 27 21 18 17 17 17 17 18 22 26 31 38 47 56 65 73 80 87 94 99 101 100 100 101 100 100 100 100 101 100 100 99 93 80 65 56 51 46 41 34 28 24 22 19 17 17 17 16 16 16 15 14 13 12 12 11 11 11 11
41 42 43 43 41 39 40 45 49 54 64 71 68 60 55 55 56 55 55 55 55 55 55 55 52 39 26 21 20 19 19 19 20 21 23 28 32 39 47 54 60 67 77 86 93 99 101 100 100 101 100 100 100 100 100 101 100 99 99 94 81 67 58 52 47 41 33 27 24 22 20 19 18 18 18 18 17 16 15 15 14 14 13 13 13
45 46 45 44 41 39 42 49 53 59 71 78 75 65 58 56 58 58 57 58 59 59 60 59 49 34 25 23 22 22 22 23 23 24 27 30 34 40 48 55 59 63 71 82 93 100 100 100 100 100 100 100 100 100 100 100 100 99 100 100 94 81 69 60 54 48 41 33 27 24 23 21 20 20 20 20 20 20 19 19 18 17 17 16 16
49 49 47 44 43 43 46 51 54 59 68 75 74 70 63 59 60 61 59 61 63 64 63 55 41 30 26 25 25 25 25 25 26 27 30 32 34 39 46 54 60 64 69 78 92 100 100 100 100 100 100 100 100 100 101 100 100 100 100 100 99 93 82 71 63 56 49 40 32 27 25 24 23 22 22 22 23 23 23 22 22 22 21 20 20
51 50 49 50 51 53 55 56 59 65 74 77 76 74 68 61 61 63 62 63 65 64 58 46 36 31 29 28 28 28 28 28 29 30 31 32 34 36 41 49 58 66 72 81 92 99 100 100 100 100 100 100 100 100 100 100 100 100 100 100 100 100 94 84 76 67 59 50 40 32 29 26 25 25 24 24 25 25 26 26 26 26 25 25 25
51 51 54 58 62 65 67 67 70 78 83 82 80 79 74 66 64 65 65 65 64 60 51 41 36 33 32 31 32 32 32 32 31 32 32 33 34 36 39 45 53 64 77 88 94 98 100 100 100 100 100 100 100 100 100 100 100 100 100 100 100 100 100 96 88 79 70 62 51 41 34 30 28 27 27 27 27 27 28 29 29 30 30 30 30
53 56 62 68 73 76 78 79 82 87 89 86 85 85 80 71 67 67 68 66 62 55 47 42 38 35 35 36 35 35 35 34 33 33 33 34 36 37 40 43 49 60 76 91 98 99 100 100 100 100 100 100 100 100 100 100 100 100 100 100 100 100 100 100 97 91 82 73 64 53 43 37 33 31 30 30 30 30 31 31 32 33 34 34 35
55 62 69 76 81 84 88 90 92 93 94 93 91 90 84 73 68 68 71 68 61 54 48 43 40 38 39 39 39 39 38 36 35 34 34 36 37 39 42 45 50 59 73 88 98 100 100 100 100 100 100 100 100 100 100 100 100 100 100 100 100 100 100 100 100 98 92 85 76 66 55 46 40 36 34 34 34 34 34 34 35 36 37 38 38
59 67 75 81 87 92 96 97 97 98 98 97 95 92 83 73 68 70 73 70 62 55 50 46 43 42 42 42 42 41 39 38 37 36 36 37 39 41 45 49 53 59 71 87 98 101 100 99 100 100 100 100 100 100 100 100 100 100 100 100 100 100 100 100 100 100 99 94 87 78 67 57 50 45 41 39 39 39 38 38 39 39 40 42 42
64 72 80 87 94 98 99 99 100 99 98 97 96 92 82 73 70 73 75 70 63 57 52 47 45 45 45 45 44 43 41 40 39 39 39 41 42 44 47 52 57 62 72 89 99 101 100 100 100 100 100 100 100 100 100 100 100 100 100 100 100 100 100 100 100 100 100 99 96 89 79 68 61 55 50 48 47 46 46 46 45 45 45 46 47
70 77 84 92 97 99 99 100 100 99 98 98 97 92 83 75 73 75 74 68 63 59 53 49 48 49 49 48 46 45 44 43 43 43 43 46 49 49 50 54 61 67 77 92 100 100 100 100 100 100 100 100 100 100 100 100 100 100 100 100 100 100 100 100 100 100 100 100 100 97 90 81 73 66 60 58 56 55 56 56 54 53 52 51 52
75 81 87 94 98 100 100 100 100 100 100 99 97 94 87 79 76 75 71 67 64 59 54 51 52 52 52 51 50 49 48 47 47 48 49 52 57 60 60 61 65 70 80 93 101 101 100 100 100 100 100 100 100 100 100 100 100 100 100 100 100 100 100 100 100 100 100 100 100 100 98 92 85 79 73 71 68 66 66 65 64 63 61 59 58
80 86 92 97 100 100 100 100 100 100 99 99 98 95 88 81 76 73 69 67 64 59 56 56 56 56 55 54 53 53 53 53 53 54 56 59 64 70 73 76 77 77 80 88 97 101 101 100 101 100 100 100 100 100 100 100 100 100 100 100 100 100 100 100 100 100 100 100 100 100 100 98 96 92 87 84 81 80 78 77 75 73 71 68 66
87 92 97 100 100 100 100 100 99 97 96 98 98 94 88 83 78 74 70 67 63 60 60 60 60 60 60 59 57 57 58 59 60 61 64 66 71 76 80 85 88 88 89 92 97 101 102 101 101 101 100 100 100 100 100 100 100 100 100 100 100 100 100 100 100 100 100 100 100 100 100 100 100 99 97 94 92 90 89 88 85 83 81 77 74
95 98 100 100 100 100 100 100 99 97 97 99 99 95 90 84 78 72 69 67 65 65 65 65 65 65 65 64 63 63 65 68 69 69 71 72 74 77 80 83 87 91 95 99 101 102 101 101 101 100 100 100 100 100 100 100 100 100 100 100 100 100 100 100 100 100 100 100 100 100 100 100 100 100 100 99 99 97 96 94 92 90 87 83 80
99 100 100 100 100 100 100 100 99 98 99 101 100 94 86 80 75 71 70 70 70 70 70 71 72 72 71 70 70 70 72 75 76 76 77 77 77 76 77 78 80 84 90 96 101 103 101 100 101 100 100 100 100 100 100 99 99 100 101 100 100 100 100 100 99 100 100 100 100 100 100 100 100 100 100 100 100 100 100 98 96 93 91 88 86
100 100 100 100 100 100 100 100 100 99 99 100 97 89 81 77 74 72 73 74 75 75 76 77 78 78 77 77 77 77 78 79 80 80 79 77 75 73 71 70 71 73 77 84 94 101 103 101 100 100 100 100 100 100 100 99 99 101 103 102 101 100 100 100 100 100 100 100 100 100 100 100 100 100 100 100 100 100 101 100 98 97 95 92 89
100 100 100 100 101 100 100 100 100 99 99 98 93 84 80 78 75 75 77 78 80 81 82 83 83 82 82 82 83 82 82 81 80 78 74 70 65 61 57 55 54 57 60 67 78 91 100 102 101 101 100 100 100 100 100 99 99 101 102 101 101 101 100 100 100 100 100 100 100 100 100 100 100 100 100 100 100 100 100 100 100 99 98 97 93
100 100 100 100 100 100 100 100 100 99 99 96 89 83 81 80 79 80 82 84 86 88 88 87 86 86 86 86 86 85 83 81 77 71 64 56 49 43 39 35 34 35 39 46 56 70 85 97 101 101 100 100 100 100 100 100 100 100 101 100 100 100 100 100 100 100 100 100 100 100 100 100 100 100 100 100 100 100 100 100 100 99 100 101 98
100 100 100 100 100 100 100 100 100 100 97 91 86 84 83 82 81 83 86 89 91 92 91 89 88 89 89 89 87 85 81 76 69 60 51 43 36 30 26 23 22 22 24 29 37 48 63 81 94 100 100 100 101 100 100 100 100 100 100 100 100 101 101 101 100 100 100 100 100 100 100 100 100 99 99 101 100 100 100 99 99 99 100 102 100
100 100 100 100 100 100 100 100 100 98 93 87 85 85 85 86 86 88 91 94 94 93 92 91 91 91 91 89 85 80 73 65 56 48 40 33 27 23 20 18 18 18 19 22 28 38 48 62 79 92 97 99 100 100 100 100 100 100 100 100 100 101 102 101 101 101 101 100 100 100 100 100 100 99 99 99 99 99 98 95 95 95 96 99 99
100 100 100 100 100 100 100 100 98 93 88 85 85 87 89 91 93 94 96 97 95 95 94 94 93 92 88 83 75 66 57 49 41 35 29 24 20 17 15 15 15 16 17 20 26 33 40 50 65 79 90 96 98 99 100 100 100 100 100 100 100 100 101 101 100 100 100 100 100 100 100 100 99 98 98 97 96 95 93 90 90 89 90 94 95
100 100 100 100 100 100 100 97 92 88 86 86 88 90 93 95 97 98 98 98 97 96 95 93 92 88 81 71 59 48 39 33 27 23 18 14 12 11 11 12 13 15 18 22 27 32 37 46 59 74 86 94 96 97 99 100 100 100 100 100 100 100 100 100 100 100 100 100 100 100 100 100 99 98 98 98 96 93 91 88 86 85 87 90 91
100 100 100 100 100 99 96 91 86 85 86 87 90 94 97 99 99 99 99 99 98 96 93 89 84 77 67 56 44 34 26 20 16 13 11 9 8 8 9 10 13 15 18 22 28 34 41 50 63 76 87 93 95 97 99 101 101 101 100 100 100 100 100 100 100 100 100 100 100 100 100 100 99 100 100 100 98 96 94 91 87 87 88 90 91
100 100 100 99 98 94 90 87 86 87 89 91 93 96 98 99 99 98 98 97 95 91 86 78 70 60 49 39 31 23 18 13 10 9 8 8 8 8 9 10 13 16 22 27 33 40 48 58 69 79 87 93 96 97 99 100 101 101 100 100 100 100 100 101 101 101 101 101 101 101 101 101 100 100 100 100 99 97 95 93 92 91 92 94 96
100 100 99 96 93 89 87 88 90 92 94 96 98 100 99 98 98 96 95 92 87 79 71 60 51 42 33 27 22 17 13 10 9 8 8 8 8 8 8 10 12 16 23 32 43 52 59 66 75 83 89 94 97 98 99 99 100 100 100 100 100 100 100 100 100 100 100 100 100 101 103 103 102 101 100 99 98 96 94 93 93 94 96 98 99
99 98 94 91 88 87 88 91 93 96 99 100 100 100 99 99 97 92 87 80 71 62 52 42 34 29 24 20 16 12 10 10 9 8 8 8 8 8 7 8 10 12 16 25 40 53 64 73 82 87 89 92 97 100 101 101 100 100 100 100 100 101 101 101 101 101 101 101 101 101 102 103 102 102 102 100 98 95 93 93 93 95 97 97 99
96 93 90 87 87 87 89 92 96 99 102 103 101 99 97 95 88 77 67 58 50 42 37 31 26 22 18 15 12 10 9 10 10 10 11 10 10 9 9 8 8 9 12 18 27 38 52 67 79 85 88 92 97 100 100 100 101 101 100 100 101 103 104 104 103 103 103 103 102 100 100 101 101 101 102 102 100 97 94 93 94 94 95 97 99
91 88 86 86 87 90 93 96 99 101 102 102 100 94 86 78 68 56 44 37 32 28 25 22 20 17 14 13 12 11 10 10 12 13 14 14 14 13 12 11 10 10 13 17 22 30 42 56 69 79 87 93 100 102 100 99 100 101 101 101 102 103 104 105 104 104 103 102 101 101 100 100 100 100 101 101 100 98 95 93 93 94 95 98 98
87 85 85 87 90 93 98 100 102 103 101 97 89 76 61 49 42 35 30 26 24 23 21 19 18 16 15 14 14 15 16 16 17 19 20 20 20 18 16 15 14 14 16 20 26 35 43 51 61 72 81 90 98 102 102 99 99 100 101 102 103 103 104 105 105 105 103 101 100 100 100 100 100 100 100 99 98 97 95 93 94 95 97 99 97
84 84 86 90 95 99 102 103 101 97 89 78 66 53 40 31 27 27 26 25 23 22 21 21 21 20 20 19 19 21 24 26 26 27 27 26 24 22 20 18 16 16 18 23 32 41 48 54 62 70 80 88 94 98 100 101 101 101 101 102 101 101 103 103 103 103 104 102 101 100 100 101 101 99 99 98 97 97 96 96 97 98 98 97 91
82 85 91 96 99 101 99 94 86 76 64 51 41 34 28 25 24 26 28 30 30 28 25 24 25 27 28 29 29 31 33 33 33 32 31 29 27 24 22 19 19 20 24 30 41 51 58 65 71 77 82 87 90 92 95 97 98 100 102 102 101 101 102 101 100 101 102 102 101 101 102 102 101 99 99 99 98 99 100 100 100 100 96 89 78
83 89 94 96 94 89 80 70 60 49 39 32 28 25 25 25 25 25 27 30 34 37 36 34 33 34 37 39 39 39 39 38 37 35 33 31 28 25 23 22 24 27 30 36 47 59 68 76 82 84 86 87 87 88 89 89 89 92 95 97 99 100 101 102 101 101 101 100 101 103 104 103 102 100 100 101 101 102 102 101 99 95 87 77 68
84 86 84 80 72 63 53 44 37 30 26 24 24 25 27 28 28 28 27 28 31 37 42 44 44 44 45 45 44 43 42 40 39 37 35 32 29 27 27 28 32 38 42 48 57 68 77 84 87 88 88 88 86 85 84 83 83 84 86 88 90 92 95 98 100 102 101 100 100 101 101 102 103 103 103 104 103 102 101 98 94 87 79 71 66
71 67 60 53 45 38 32 27 24 22 23 25 27 29 30 30 31 32 33 33 36 41 47 51 52 51 51 49 48 46 45 43 41 39 36 34 30 28 30 33 40 50 59 67 75 83 88 90 91 91 89 88 86 85 83 81 80 81 81 81 82 82 84 88 92 97 99 99 98 99 100 101 103 105 105 104 103 101 98 93 86 80 75 70 68
47 41 35 31 27 24 22 21 21 23 26 28 31 34 34 35 36 37 39 43 47 51 54 55 56 56 55 53 51 50 48 46 44 41 38 34 31 30 33 40 52 66 78 86 91 95 97 96 94 91 88 85 84 82 81 80 79 79 79 78 78 78 79 80 83 88 93 96 98 98 100 102 105 105 104 102 100 98 94 89 85 80 75 73 75
27 23 21 20 19 19 20 22 26 29 32 35 37 38 39 40 43 46 50 54 57 59 59 59 59 60 59 57 56 54 52 49 46 43 38 35 33 35 44 57 72 85 94 99 102 102 99 97 96 92 89 86 84 82 81 81 80 80 80 79 79 79 79 78 78 81 86 92 95 98 101 104 104 103 101 99 96 94 92 91 88 86 84 84 84
17 16 17 17 18 21 25 29 33 37 39 40 42 43 45 48 51 55 60 62 63 63 63 64 64 63 63 63 62 58 55 52 48 43 38 35 36 44 60 78 92 97 99 102 105 102 97 94 95 95 93 92 90 88 86 84 83 83 83 82 81 81 81 80 79 79 81 86 91 96 100 101 100 99 98 97 96 95 93 90 89 90 93 92 89
15 16 18 20 23 28 33 36 39 42 43 44 47 51 53 56 59 63 65 66 67 68 68 68 69 70 70 69 67 62 58 54 49 43 39 37 42 58 79 96 102 101 99 101 104 103 99 97 97 98 98 97 95 92 90 88 87 87 86 85 84 83 82 82 81 79 79 83 88 92 95 96 96 96 97 97 97 96 93 91 91 92 94 95 92
18 20 23 27 31 36 39 41 43 45 47 50 55 60 62 63 64 66 67 68 70 72 74 75 76 76 75 74 70 66 61 56 49 43 40 40 51 73 94 103 102 100 101 102 102 103 104 103 101 101 102 101 100 98 97 95 94 91 89 88 86 84 83 82 81 80 81 85 87 90 92 94 96 98 99 99 98 96 95 97 98 97 96 93 80
24 27 31 34 37 40 43 46 48 51 56 60 64 67 69 69 69 70 71 72 74 77 79 81 81 80 79 78 74 68 62 56 50 44 43 51 69 89 102 104 102 103 105 103 100 101 104 105 105 104 103 102 102 102 102 102 101 98 94 91 89 88 87 87 86 87 88 89 90 92 95 98 100 101 102 101 99 98 99 101 102 99 91 74 53
31 33 36 38 40 42 46 51 56 61 66 69 72 73 74 74 75 76 77 78 79 81 83 84 85 86 85 82 76 69 62 56 50 45 51 71 93 105 105 103 104 106 106 103 101 101 104 106 106 104 101 100 101 101 103 104 104 103 101 99 96 95 95 95 96 96 95 96 96 98 100 101 101 101 101 100 100 101 102 102 98 86 66 48 43
36 38 40 42 44 47 52 59 65 70 73 76 78 78 78 79 80 81 82 84 85 86 87 89 90 90 89 84 78 70 63 56 51 52 68 91 107 108 104 103 103 104 104 103 102 103 104 104 104 102 101 101 100 100 101 102 101 102 103 103 101 101 101 101 101 100 100 101 101 101 101 100 100 100 100 100 100 101 101 94 78 58 44 49 68
43 45 48 50 53 58 63 68 73 76 80 83 84 84 83 84 86 87 88 90 91 92 93 94 95 95 92 86 78 70 63 56 54 65 87 105 108 103 101 101 101 101 102 103 103 104 104 103 103 104 104 102 100 99 100 100 100 101 102 102 102 103 103 102 101 101 101 101 100 100 100 100 100 101 101 99 99 97 88 71 53 45 55 77 95
56 58 60 62 65 68 72 77 81 83 86 88 90 91 91 92 93 94 95 96 96 97 98 98 99 99 94 86 78 70 62 58 64 82 101 109 106 103 103 101 100 101 104 104 103 103 103 103 103 103 102 101 100 100 100 100 99 100 101 102 102 102 101 101 101 100 100 100 100 100 101 100 99 100 101 99 93 81 64 49 49 65 85 99 102
71 72 73 74 75 77 79 83 86 89 92 94 96 97 99 100 100 101 101 100 101 102 102 102 103 101 95 86 78 68 61 63 79 96 105 106 106 106 105 102 102 103 104 103 102 102 102 101 101 100 100 100 100 100 100 100 100 100 100 100 100 100 100 101 100 99 100 101 100 100 100 101 101 101 97 86 71 56 49 56 75 93 101 101 99
82 83 83 84 84 85 86 88 90 93 96 99 101 103 104 105 105 103 102 102 102 103 103 104 104 102 96 86 75 65 64 75 92 103 104 104 106 106 103 102 103 103 102 102 102 101 101 100 100 100 100 100 100 100 100 100 100 100 100 100 100 100 100 100 100 100 101 100 100 102 103 102 96 86 73 59 50 52 66 84 98 101 100 99 100
90 91 92 92 92 92 93 94 96 98 100 102 104 105 106 105 104 102 100 100 101 102 101 102 103 102 96 84 72 66 73 87 99 104 105 106 106 103 101 101 102 102 103 102 101 100 100 100 100 100 100 100 100 100 100 100 100 100 100 100 100 100 100 100 100 100 100 101 103 102 97 86 72 59 51 51 60 77 93 101 101 99 99 101 100
96 98 99 99 98 99 99 100 100 101 103 104 105 104 102 101 102 101 100 100 100 100 99 100 103 103 95 81 70 72 84 97 102 103 105 106 103 101 101 102 102 102 102 101 100 100 101 100 100 100 100 100 100 100 100 100 100 100 100 100 100 101 101 100 99 101 102 102 97 86 72 60 52 51 58 72 87 97 101 100 99 100 101 100 99
99 101 103 102 101 101 102 102 101 102 103 103 102 101 100 100 100 100 101 101 100 99 99 101 104 103 91 76 71 78 92 101 102 102 102 103 101 100 102 103 102 102 101 100 100 101 100 99 100 101 100 99 100 100 100 100 100 99 100 101 100 99 100 101 102 101 94 83 69 58 51 51 58 70 83 94 100 101 100 99 100 100 100 99 100
Wind_Speed
35 36 36 37 37 38 38 38 38 38 38 38 39 39 40 40 41 42 42 42 42 41 41 42 43 44 44 44 44 44 44 45 45 45 46 46 46 45 44 44 44 44 45 44 44 44 44 44 43 42 42 40 37 36 36 36 35 34 32 32 32 31 29 27 25 24 24 25 24 22 22 22 21 21 21 20 19 18 18 18 17 17 17 17 17
36 36 37 37 37 38 39 39 40 40 41 41 41 40 40 40 41 42 43 43 43 43 43 43 44 45 45 44 44 44 45 45 46 46 47 47 47 46 45 44 44 44 45 45 44 44 44 44 44 44 42 40 39 38 37 36 36 36 35 33 33 32 31 29 27 25 24 25 25 24 23 23 22 22 22 21 21 20 19 18 18 18 18 18 18
36 36 37 38 38 39 38 39 40 41 42 44 45 44 42 41 42 43 44 44 44 43 43 43 44 45 45 44 44 45 45 45 46 47 47 47 47 47 46 45 44 44 44 45 45 44 44 43 43 44 43 40 39 40 39 37 37 37 37 36 34 33 32 31 29 27 25 25 26 26 24 24 24 23 23 22 22 21 21 20 20 19 19 19 19
36 37 38 39 40 40 39 39 41 42 43 46 48 47 45 43 43 44 45 45 44 43 43 43 45 45 44 44 45 45 46 46 46 47 47 48 48 48 47 46 45 44 44 45 45 44 43 43 43 43 42 41 40 40 40 39 37 38 38 37 36 34 33 33 31 29 27 25 26 27 26 26 25 25 24 24 23 23 22 22 21 21 22 22 22
36 37 39 39 40 41 40 41 42 43 44 47 49 50 48 45 44 45 45 45 43 42 43 44 44 44 44 44 45 45 46 46 47 47 48 48 49 49 48 47 46 45 45 45 45 44 43 43 43 43 42 42 41 41 41 40 39 39 39 38 37 36 34 34 32 31 29 27 26 27 27 27 27 26 26 25 25 25 25 24 24 23 23 24 24
37 38 39 39 40 41 42 43 44 45 46 49 51 52 50 47 45 45 46 44 43 42 43 44 44 44 45 45 45 46 46 47 47 48 48 49 49 49 48 48 47 46 45 45 44 44 44 43 44 44 43 43 43 43 42 41 40 40 39 38 38 37 36 35 34 33 31 29 28 27 28 28 28 28 27 27 27 27 27 27 27 26 25 25 26
38 39 39 40 41 42 44 46 47 48 49 52 53 53 52 49 47 47 46 45 43 43 44 45 45 45 45 46 46 46 47 47 48 48 49 49 49 49 49 48 48 47 46 45 44 44 43 44 44 45 44 43 44 44 43 42 41 40 39 39 39 38 37 36 35 34 33 31 29 29 29 29 29 29 29 28 28 28 28 28 28 28 28 28 29
39 39 40 41 42 44 46 48 49 50 52 54 55 55 53 51 49 48 47 46 45 44 45 45 46 46 46 47 47 47 47 48 48 49 49 49 49 49 49 49 48 48 47 46 44 43 43 44 45 45 45 44 44 44 43 42 42 41 40 40 40 39 39 38 37 36 34 33 31 30 30 30 30 30 30 30 30 29 29 29 29 28 29 30 30
40 40 41 42 43 46 48 50 50 52 54 56 57 56 55 53 51 49 47 47 46 46 46 47 47 47 47 47 48 48 48 48 49 49 49 49 49 49 49 49 49 48 48 46 44 43 43 44 45 45 44 43 43 43 43 42 42 41 40 40 40 40 40 39 38 37 36 34 33 32 31 31 31 30 30 30 30 30 30 30 30 29 28 29 31
41 41 42 43 45 47 50 51 52 54 56 57 58 58 56 53 51 49 47 47 47 47 48 48 48 48 48 48 48 48 48 49 49 49 49 49 49 49 49 49 48 48 47 45 43 42 43 44 45 44 43 43 43 43 43 42 42 40 39 39 40 40 40 39 39 38 37 36 35 33 33 32 31 31 31 30 30 31 31 31 30 30 29 29 30
42 43 43 44 46 49 50 52 54 56 57 57 58 59 56 53 50 48 48 48 48 48 49 49 49 49 50 49 49 49 49 49 49 49 49 49 49 49 49 48 47 46 45 44 42 41 42 43 44 43 42 42 42 42 43 42 41 40 39 39 39 39 40 39 39 39 38 38 36 35 34 33 32 32 32 31 31 30 31 31 30 30 30 30 30
43 44 45 46 48 50 52 54 56 57 58 58 59 58 56 52 49 48 48 48 48 49 50 50 50 50 50 50 50 49 49 49 50 49 49 49 49 49 48 47 46 44 42 41 40 40 41 42 43 43 42 41 41 42 42 42 41 40 39 39 39 39 39 39 39 39 39 38 37 36 36 35 34 33 32 32 31 30 30 30 30 30 30 30 30
45 45 47 48 49 51 54 56 57 58 59 59 59 58 55 52 49 48 48 48 49 50 51 51 51 51 51 50 50 50 50 50 49 49 49 48 48 48 48 47 46 43 41 39 38 39 40 42 42 42 42 41 41 41 42 42 42 41 39 39 38 38 38 39 39 38 38 38 38 38 37 36 35 34 33 32 31 31 30 30 30 31 31 31 31
46 47 49 49 51 54 56 57 57 58 60 59 57 56 55 51 49 47 48 49 50 50 51 51 51 51 51 51 50 50 50 49 49 48 48 48 47 47 47 46 45 43 40 38 38 38 40 41 41 41 41 41 40 40 41 42 42 41 40 38 38 38 38 38 38 37 37 37 38 38 38 37 36 35 33 32 31 31 30 30 31 31 31 31 31
48 49 50 51 53 56 57 58 58 60 60 57 56 55 53 50 48 48 49 50 50 51 50 51 51 51 51 51 51 50 50 49 48 48 47 47 47 47 46 45 44 43 41 39 39 39 40 40 41 41 40 40 39 40 41 42 42 41 40 38 38 37 38 38 37 37 36 36 37 37 37 37 36 35 34 33 32 31 31 31 31 32 32 32 32
50 50 51 53 56 58 58 58 59 60 59 56 55 54 51 49 48 49 49 50 50 50 51 51 51 51 52 52 51 50 49 49 48 47 47 47 47 47 46 45 45 44 42 41 40 40 40 41 41 40 40 39 39 39 41 41 42 41 40 38 38 37 37 38 37 37 36 36 36 36 35 35 35 34 34 33 32 31 32 32 32 32 33 33 32
51 52 53 55 58 59 59 59 60 61 58 55 53 51 49 48 49 49 50 50 50 50 50 51 51 51 51 51 51 50 49 49 48 48 47 47 47 47 47 46 46 45 44 43 42 41 41 41 41 40 39 39 38 39 40 41 41 41 40 39 38 37 37 37 38 37 36 36 35 35 35 34 33 33 33 33 33 32 33 33 33 33 34 34 33
53 54 55 58 59 59 58 58 60 62 58 53 51 49 48 49 50 50 50 49 50 50 50 51 51 51 51 51 50 50 50 49 49 48 48 48 48 48 47 47 47 46 45 45 43 42 40 40 40 40 39 38 38 38 39 41 41 40 40 40 39 38 37 37 37 37 36 36 36 36 35 34 34 33 33 33 33 33 33 34 34 34 34 34 34
54 55 57 59 59 57 56 57 60 61 56 51 49 49 49 50 50 50 50 50 50 50 51 51 51 51 51 51 51 51 50 50 49 49 48 48 48 48 47 47 47 46 46 45 44 43 41 40 40 40 39 38 37 37 38 39 40 39 39 40 39 37 36 36 36 36 36 36 36 36 36 35 35 34 33 33 34 33 34 34 34 34 34 34 34
55 57 58 58 57 56 56 57 60 59 54 50 50 50 50 50 50 49 50 50 50 51 51 51 51 51 51 51 51 51 51 50 50 49 48 47 47 47 47 47 47 46 45 45 44 43 42 40 39 39 39 37 36 36 36 37 38 38 38 38 37 36 36 36 36 36 36 36 36 36 36 36 36 35 34 34 33 33 34 34 34 34 34 34 34
57 57 56 56 56 55 55 57 59 56 51 50 51 51 50 50 50 50 50 50 51 51 51 51 52 52 52 52 52 52 52 51 50 49 48 47 47 47 46 46 46 45 45 44 43 42 41 40 39 38 38 37 36 35 35 36 36 36 36 36 36 36 36 35 35 35 35 35 35 35 36 36 35 35 34 33 33 33 33 33 34 34 34 33 33
56 55 55 56 55 54 55 57 56 53 51 51 51 50 50 50 51 51 51 51 51 51 52 52 52 52 52 52 52 52 52 51 50 50 49 48 47 46 46 45 45 44 44 43 42 41 40 39 38 37 36 36 35 34 33 34 35 35 35 34 34 35 35 34 33 33 34 34 34 34 34 34 34 33 33 32 32 32 32 33 33 33 33 33 32
54 55 56 55 54 54 54 55 52 50 50 51 50 50 51 51 51 51 51 51 51 51 52 52 52 52 52 52 52 52 51 51 50 50 48 47 47 46 45 45 44 43 43 41 40 39 38 37 36 35 34 34 33 33 32 33 33 33 33 33 33 32 33 32 32 32 32 32 32 32 32 33 33 32 31 31 31 31 32 32 32 32 32 31 31
54 55 54 53 53 53 52 51 50 50 50 50 50 51 51 50 51 51 51 51 51 51 52 51 52 52 52 51 51 51 50 50 49 48 47 46 45 44 44 43 42 41 40 39 38 38 37 35 34 32 32 31 31 31 31 31 32 32 31 31 31 30 30 30 30 29 29 29 30 30 31 31 31 31 30 30 30 31 31 32 32 32 31 30 29
54 54 52 51 51 50 49 49 50 50 50 50 51 51 50 50 50 50 51 51 51 51 51 51 51 51 51 51 50 50 49 48 47 45 44 43 42 42 41 41 40 40 39 38 36 35 34 33 32 30 29 29 29 29 29 30 30 30 29 29 29 28 28 28 28 28 27 27 27 27 28 28 29 28 28 28 29 30 31 31 31 31 30 28 27
53 51 49 49 48 48 49 50 50 50 51 51 51 51 51 51 50 51 51 51 51 51 51 51 51 51 50 50 49 48 47 46 44 43 41 41 40 40 39 38 38 37 37 36 35 34 32 31 30 29 28 27 27 27 28 28 28 28 28 27 27 27 27 27 27 27 26 25 25 24 25 25 26 26 26 27 28 29 30 31 30 30 29 27 25
49 48 47 48 48 49 50 50 50 51 51 51 51 51 51 51 51 51 51 51 51 51 50 50 50 49 49 48 47 46 45 44 43 42 40 38 37 37 36 35 35 34 33 33 33 32 31 30 28 27 26 26 26 26 26 26 26 26 26 26 25 25 25 25 25 25 25 24 24 23 23 23 24 24 25 26 27 28 29 30 29 28 27 26 25
47 47 48 49 49 49 50 50 50 50 51 51 51 50 50 50 51 51 50 50 50 50 49 49 48 47 47 47 46 45 44 43 42 40 38 37 35 33 33 32 32 31 30 29 29 29 29 28 27 26 26 25 25 25 25 25 24 24 24 24 23 23 23 23 23 23 23 23 23 23 23 23 23 23 24 25 26 27 28 28 27 26 25 25 25
47 48 49 50 50 50 50 50 50 50 50 51 50 50 50 50 50 50 49 49 49 48 48 47 46 46 45 45 45 44 43 42 40 38 37 35 34 32 31 30 29 28 27 27 27 26 26 26 26 25 25 25 24 24 24 24 23 23 22 22 21 21 21 21 21 21 21 21 22 22 22 22 22 23 23 25 26 26 26 26 25 24 24 24 24
49 49 50 50 49 49 49 49 50 50 49 49 49 49 49 49 48 48 47 47 46 45 45 45 44 44 43 43 42 42 41 40 38 36 34 33 32 31 31 29 28 27 26 25 25 25 24 24 24 24 24 24 24 24 24 23 22 22 22 21 20 20 19 19 20 20 20 20 20 20 20 21 21 21 22 23 24 25 25 24 23 23 22 23 23
49 49 49 49 49 49 49 49 49 49 48 48 47 47 47 46 45 45 44 44 43 43 42 42 42 41 41 40 39 38 37 36 35 33 32 31 31 30 30 29 28 26 25 24 23 23 23 22 23 23 23 23 23 23 23 23 22 22 22 21 20 19 19 19 19 19 19 19 19 19 19 19 20 20 21 22 23 23 23 23 22 22 21 21 21
49 49 48 48 48 48 48 48 48 47 47 47 46 45 44 43 42 41 41 41 41 40 40 39 38 37 36 36 35 34 33 33 32 31 31 30 29 29 28 28 26 25 24 23 22 22 21 21 21 22 22 22 22 22 22 22 22 22 21 21 20 20 19 19 19 19 19 19 18 18 18 18 19 19 20 21 21 22 22 21 21 21 20 20 20
48 48 47 47 47 47 47 47 46 46 46 45 43 42 41 39 39 38 38 37 37 37 38 37 35 33 32 32 31 31 31 31 31 30 30 29 29 28 27 27 26 23 22 21 21 20 20 20 20 20 20 20 21 21 21 21 21 21 21 20 20 19 19 19 19 19 19 19 18 18 17 17 18 18 19 20 20 20 20 20 20 19 19 18 19
47 47 46 46 46 46 46 45 45 44 43 41 40 39 39 38 38 38 37 36 35 34 33 33 31 30 29 29 29 30 30 30 30 30 30 29 28 27 27 26 25 24 22 20 19 18 18 18 18 18 19 19 19 19 20 20 20 19 19 19 19 19 19 19 19 19 19 19 19 18 17 17 17 17 18 18 18 18 18 18 18 18 18 18 18
46 46 45 45 45 45 44 43 42 41 39 38 38 37 37 38 38 37 37 36 34 32 30 29 29 28 27 27 28 29 30 30 30 30 30 29 28 27 25 24 24 23 21 20 19 17 17 16 17 17 17 18 18 18 18 18 18 18 18 17 17 18 18 18 18 18 18 19 19 18 17 16 16 16 16 16 16 16 16 16 17 17 17 17 17
45 45 45 44 44 43 42 40 39 38 37 36 37 37 37 37 37 36 36 34 32 30 28 27 27 27 27 28 28 29 30 31 31 31 31 30 28 26 24 22 21 20 19 18 18 17 16 15 15 16 16 16 16 16 16 17 17 16 16 16 16 16 17 17 17 17 18 18 18 17 17 16 15 15 15 15 15 15 15 15 16 16 16 16 15
44 43 43 42 41 39 38 37 36 36 36 36 37 37 37 37 36 34 33 31 29 28 27 26 26 26 27 28 28 29 30 31 31 32 32 31 29 27 24 22 20 19 18 17 17 16 16 15 15 15 15 15 15 15 15 16 15 15 15 15 15 15 15 16 16 16 16 16 16 16 16 15 14 13 13 13 14 14 14 14 15 15 14 14 13
42 41 40 38 37 36 35 34 35 35 36 36 37 36 36 34 33 31 29 28 27 26 26 26 26 26 26 27 28 29 30 31 31 31 31 30 28 26 23 21 19 18 17 17 16 16 15 15 14 14 14 14 15 15 15 15 15 15 14 14 14 14 14 15 15 15 15 15 15 15 14 14 13 12 12 12 13 13 13 13 12 12 13 12 12
39 38 36 35 34 33 33 34 35 35 36 36 35 34 33 31 30 28 26 25 25 25 25 26 26 27 27 27 28 28 29 30 30 30 29 28 26 23 20 19 17 17 16 16 16 15 15 14 14 14 14 14 14 14 14 15 15 14 14 14 13 13 13 13 13 13 13 14 13 13 12 12 12 11 11 11 12 12 11 10 10 10 11 11 11
36 34 33 33 33 33 34 34 34 34 34 34 32 31 30 28 26 25 24 24 24 24 25 26 27 27 28 28 28 29 29 30 30 30 28 26 24 21 18 17 16 15 15 15 15 15 15 14 14 14 14 14 14 14 14 14 14 14 14 13 13 12 12 12 11 11 11 12 11 11 10 10 10 10 10 10 10 10 9 9 9 9 9 10 10
33 32 32 32 33 33 33 34 33 33 32 31 29 28 27 26 25 24 23 23 23 24 25 26 27 28 28 29 30 30 30 31 31 29 27 24 21 19 17 15 15 14 14 14 14 14 14 14 14 13 13 13 14 14 13 13 13 13 12 12 12 11 11 10 10 10 10 9 9 8 8 8 8 8 8 8 8 8 7 7 8 8 8 9 9
32 32 32 32 32 32 32 31 31 30 29 28 27 26 25 24 24 23 23 24 24 24 25 26 27 28 29 30 30 31 31 31 31 29 26 22 19 17 16 15 14 14 14 14 14 14 14 14 13 13 12 13 12 12 12 11 11 11 10 10 9 9 8 8 8 8 7 7 6 6 6 6 6 6 6 6 6 6 6 7 7 8 8 8 8
31 31 31 31 31 31 30 29 28 27 27 26 26 26 25 24 24 23 24 24 24 25 25 25 26 27 28 29 30 31 31 31 30 27 24 20 17 16 15 15 14 14 14 13 13 13 13 13 12 11 11 11 11 11 10 9 9 8 7 7 6 6 6 6 6 6 5 4 4 4 4 4 4 4 5 5 5 5 6 6 7 7 7 7 8
30 30 30 30 29 29 28 27 27 26 25 25 25 25 25 24 24 24 24 24 25 25 26 26 26 27 27 28 29 30 30 30 29 25 21 18 16 15 15 15 15 14 14 13 13 13 12 12 11 10 9 9 8 8 7 7 6 5 4 3 3 3 4 4 5 4 4 3 3 3 3 3 3 3 4 4 4 5 5 5 6 6 6 7 7
29 29 28 28 28 27 27 26 26 26 25 25 25 25 25 25 25 25 25 25 25 26 26 26 27 27 27 28 28 29 29 29 26 22 18 16 16 15 15 15 14 14 13 13 13 12 12 11 11 10 8 7 6 5 5 4 3 2 1 1 0 1 2 2 3 3 3 3 3 3 3 3 3 3 3 4 4 5 5 5 5 6 6 6 7
28 27 27 27 27 26 26 26 26 26 25 25 25 25 25 25 26 26 25 26 26 26 26 26 26 26 27 27 28 28 28 27 23 18 16 15 15 14 14 14 14 13 13 12 12 11 11 10 10 9 7 6 5 4 3 3 3 3 3 3 3 3 4 4 4 4 5 5 5 5 4 4 4 3 4 4 5 5 4 4 4 5 5 5 6
27 27 26 26 26 26 26 25 25 26 26 26 26 26 26 26 26 26 26 26 26 26 26 26 26 26 27 27 27 28 27 23 19 16 14 14 14 13 13 13 13 12 12 11 11 11 10 9 9 8 6 5 5 5 5 5 6 6 6 6 6 6 6 6 6 6 6 6 6 5 5 4 4 4 4 4 4 4 3 3 4 4 5 5 6
27 27 26 26 26 26 25 25 25 26 26 26 27 27 27 27 27 26 26 26 26 26 26 25 25 26 26 27 27 27 24 20 16 14 13 13 13 13 13 12 11 11 11 11 10 10 9 9 8 7 6 6 6 6 7 7 8 8 8 8 8 8 8 8 7 7 7 6 5 5 4 4 4 3 2 2 2 3 3 3 4 5 5 6 7
28 27 27 27 26 26 26 26 26 26 26 26 27 27 27 27 27 26 26 26 26 26 25 25 25 25 26 26 26 25 21 16 14 13 13 13 13 13 12 11 10 9 10 10 9 9 9 8 8 8 7 7 8 8 8 9 9 9 9 9 9 9 9 8 7 7 6 5 4 4 4 3 2 1 1 1 2 2 3 3 4 5 6 7 8
28 28 28 27 27 27 26 26 26 26 26 26 27 27 27 27 26 26 25 25 25 25 25 24 24 25 25 25 24 22 17 13 12 12 13 12 12 12 11 9 9 8 8 9 8 8 8 8 8 8 8 9 9 9 9 10 10 10 9 9 9 8 7 6 5 5 4 3 3 3 3 2 2 1 1 2 2 3 4 5 5 6 6 7 8
29 29 28 28 28 27 27 27 26 26 26 26 26 26 26 26 25 25 25 24 24 24 23 24 24 24 24 24 22 18 14 11 11 12 12 11 11 10 9 8 8 8 8 8 8 8 7 8 8 9 9 10 10 10 10 9 9 9 8 7 6 6 5 4 4 4 4 4 4 3 3 3 3 2 2 3 3 4 5 6 6 6 7 7 8
Wind_Direction
319 320 319 319 319 319 318 318 318 319 319 319 317 312 308 306 306 306 306 305 303 302 304 308 311 313 312 311 310 310 309 308 307 307 305 305 304 302 301 299 298 296 294 292 291 290 290 290 291 291 292 292 290 287 284 284 287 287 287 288 288 288 288 288 288 288 286 285 283 280 280 280 280 280 281 281 280 279 280 280 279 280 280 281 282
318 318 319 318 319 319 318 318 318 319 319 320 320 316 311 307 306 307 306 305 303 302 302 305 309 311 311 310 309 308 307 306 305 304 304 303 302 302 301 299 297 296 294 292 290 289 289 289 289 290 290 288 287 287 285 283 285 286 285 284 284 285 285 284 284 283 282 282 281 279 277 276 277 278 279 280 281 281 281 282 283 284 285 286 287
316 316 317 317 317 317 317 317 316 317 319 320 321 319 314 308 306 307 307 306 305 302 301 304 307 309 309 308 308 307 306 305 304 303 302 302 301 300 300 299 297 295 293 291 289 288 288 288 287 287 287 285 284 285 285 282 282 284 284 281 281 281 282 282 281 280 279 278 279 278 276 274 274 275 276 277 279 281 283 284 285 287 288 289 289
313 314 315 315 316 317 317 316 315 315 318 318 319 318 315 309 306 307 308 307 306 303 301 303 306 308 308 307 306 306 305 304 303 302 301 301 300 299 299 298 296 295 293 290 288 287 286 286 286 285 284 283 282 282 284 283 281 283 283 280 278 278 278 279 278 277 276 275 275 275 275 274 273 273 273 275 277 280 282 284 285 287 289 290 290
310 312 313 314 315 317 317 316 315 315 317 317 316 316 315 310 307 307 308 308 306 303 302 304 306 307 307 306 306 305 304 303 302 301 301 300 299 299 298 296 295 293 291 289 288 286 285 285 286 285 283 281 280 280 281 282 282 282 282 280 277 275 275 276 276 275 274 272 271 272 272 272 272 272 272 273 276 278 281 283 284 286 288 290 292
309 310 311 313 315 317 317 317 317 317 318 317 316 315 314 312 308 308 309 308 306 304 304 305 307 307 307 306 305 305 304 303 302 301 300 299 299 298 297 295 293 291 290 288 287 285 284 284 285 286 283 280 279 279 279 279 280 280 280 279 277 275 273 273 273 273 272 271 269 269 269 270 270 270 270 271 273 276 279 282 284 286 289 291 293
307 308 310 311 313 315 317 318 318 318 318 317 316 315 313 311 309 309 310 309 307 305 305 307 308 308 307 306 306 305 305 304 302 301 300 299 298 298 296 295 293 291 288 286 285 284 284 284 285 285 285 282 280 279 278 277 277 278 279 278 276 274 272 271 271 271 270 269 268 267 266 267 268 269 269 270 271 273 275 278 282 286 290 293 295
306 307 308 310 311 313 315 316 317 317 316 315 315 314 312 310 308 309 309 308 307 306 306 308 308 308 307 306 306 306 305 304 302 300 299 299 298 297 296 296 294 291 288 285 284 283 282 283 284 284 284 283 281 279 278 277 276 276 277 277 275 273 271 269 268 268 267 267 266 265 265 265 266 266 268 269 271 272 274 275 277 281 285 289 291
304 305 307 308 309 311 313 314 315 315 313 312 312 311 310 308 307 307 308 307 306 306 307 308 308 308 307 307 306 306 305 304 302 300 299 298 298 297 296 296 295 292 289 286 284 283 282 282 283 284 284 282 280 279 277 277 276 275 276 276 275 273 271 269 268 266 265 265 264 264 263 264 264 265 266 268 270 271 273 275 276 277 280 283 286
302 304 306 307 307 309 310 312 312 311 310 310 310 309 309 307 306 306 306 306 306 306 308 309 308 308 307 307 307 306 305 303 301 300 299 299 298 297 296 296 295 293 291 288 285 283 282 282 282 283 283 282 280 278 277 277 276 275 275 275 275 273 271 270 269 267 265 264 263 262 262 262 263 264 264 265 267 270 272 274 276 277 279 280 283
301 303 305 305 305 306 308 308 308 308 308 308 307 307 307 306 305 305 305 305 306 307 308 309 308 307 307 307 306 305 303 302 301 300 300 299 298 297 296 296 296 294 292 288 285 283 282 283 283 284 283 281 279 278 277 277 276 275 275 275 274 273 272 271 270 268 266 264 262 262 261 261 262 263 263 264 265 267 270 272 274 277 278 280 281
301 302 304 304 304 304 305 306 306 307 308 307 306 305 306 306 305 305 304 305 306 307 308 308 307 307 306 306 305 304 303 302 301 300 300 299 298 297 296 296 296 296 293 289 285 283 282 283 284 284 283 281 279 277 276 276 275 275 274 274 274 273 272 271 271 269 268 265 263 261 260 260 260 261 263 264 265 267 269 272 274 276 278 280 282
300 301 302 303 303 303 304 305 306 307 307 306 305 304 305 305 305 304 304 306 307 307 308 307 306 306 305 305 304 303 302 301 301 300 300 299 298 298 297 296 296 297 295 291 286 283 283 284 284 285 284 282 280 278 276 275 275 275 274 274 274 273 272 271 270 270 269 268 265 263 260 259 259 260 261 263 265 267 269 272 275 277 279 280 282
299 300 301 301 301 302 303 305 306 306 306 306 304 303 304 305 305 305 306 306 307 307 306 306 305 305 304 304 303 303 302 301 301 300 299 299 298 297 297 297 297 297 296 293 288 284 284 284 285 285 284 282 281 278 276 275 275 275 275 275 274 273 272 271 270 270 270 269 268 266 263 261 260 260 261 263 266 268 270 273 276 278 279 281 283
297 298 298 299 301 303 304 305 305 306 307 306 304 303 304 305 306 306 306 306 306 305 305 305 304 304 303 303 303 302 302 301 300 299 298 297 296 296 296 296 296 296 295 294 290 287 285 285 285 285 283 282 280 278 276 275 274 275 276 275 275 274 273 272 271 270 269 269 268 268 266 265 264 264 264 265 266 269 271 273 275 277 279 280 282
295 296 296 299 302 304 305 305 305 307 308 307 304 304 305 306 306 305 305 305 305 305 304 304 303 303 302 302 302 302 301 300 300 299 297 296 295 295 294 294 294 294 293 292 291 289 289 288 287 285 284 281 279 277 276 274 274 275 275 276 275 274 274 273 272 271 270 269 269 268 268 268 267 268 268 268 269 270 272 274 275 277 279 279 280
294 294 296 300 302 304 304 304 305 308 308 306 304 304 304 305 305 304 304 304 304 304 303 303 302 302 302 302 301 301 300 299 299 298 297 296 295 294 294 293 293 293 292 291 290 290 290 290 289 288 286 283 280 278 276 275 275 275 276 276 276 275 275 274 273 272 271 271 270 269 269 269 268 269 269 270 271 271 272 273 274 275 277 278 278
294 295 297 299 301 302 304 303 303 307 308 305 304 304 305 305 304 304 303 303 303 303 302 301 301 301 301 301 300 300 299 299 298 297 297 296 295 295 294 294 293 292 291 291 290 289 289 289 289 288 287 284 282 279 278 277 276 276 276 276 276 277 276 274 274 273 273 272 271 270 270 270 269 270 270 270 271 271 271 271 271 273 274 276 277
296 296 295 297 299 302 302 300 301 305 307 305 305 305 305 305 304 304 303 303 302 302 301 301 301 301 301 301 300 300 299 299 298 298 297 296 296 295 295 294 293 293 292 291 290 289 288 288 287 287 286 285 283 281 279 278 277 277 276 275 275 276 275 273 272 272 271 271 271 271 270 270 269 269 269 269 269 270 270 270 270 271 272 274 276
295 294 293 296 300 302 301 299 302 306 306 305 306 306 305 305 304 304 303 303 302 302 301 301 301 301 301 300 300 300 299 299 299 298 297 297 296 295 295 294 293 293 292 291 290 289 288 287 287 286 286 285 284 282 280 279 277 276 275 275 275 274 273 272 272 271 270 270 270 270 270 270 270 269 269 268 269 268 268 268 269 269 270 272 273
293 292 295 300 302 301 300 301 304 306 306 306 306 306 305 305 304 304 303 302 302 301 301 302 302 301 301 301 300 300 300 299 299 298 298 297 297 296 295 294 294 293 292 292 291 290 289 288 287 286 286 285 284 282 281 279 278 276 275 275 275 273 273 272 272 271 270 269 269 269 269 270 269 269 269 268 268 267 267 267 267 268 269 271 272
293 296 300 302 302 300 300 303 306 307 307 307 306 305 305 304 303 303 302 302 302 302 302 302 302 302 301 301 301 300 300 300 299 299 299 299 298 297 296 295 294 294 293 292 291 290 290 289 288 287 286 285 284 283 281 279 278 277 276 275 274 273 274 273 272 272 271 270 270 269 269 269 269 269 269 268 268 267 266 265 266 266 267 269 271
297 301 302 302 301 301 303 305 306 307 307 306 306 305 304 303 302 302 302 302 302 302 302 302 302 302 302 301 301 301 301 300 300 300 300 299 299 298 297 296 295 294 293 293 292 291 290 289 289 287 286 285 284 282 281 280 278 278 277 276 275 275 274 274 273 272 271 271 270 270 269 269 269 269 268 267 267 266 266 266 266 266 267 268 270
301 302 302 301 302 303 305 307 307 307 307 306 305 304 303 302 302 302 302 302 302 302 302 302 302 302 301 301 301 302 302 301 301 301 300 300 299 298 297 296 295 294 293 293 292 292 291 290 290 288 286 285 283 281 280 279 279 278 278 277 277 276 276 275 274 273 271 270 269 269 269 269 269 268 268 267 266 266 266 266 266 267 267 268 270
303 303 302 303 304 306 307 308 308 308 306 305 304 303 302 302 302 302 302 302 302 302 302 302 302 302 302 302 302 302 302 302 301 301 300 299 298 297 296 296 295 294 293 293 292 292 292 291 290 289 287 285 283 281 279 278 278 278 277 277 276 276 276 276 276 275 273 271 269 268 267 267 267 267 266 265 265 265 265 266 266 267 267 268 269
303 303 304 305 307 308 309 308 308 307 305 304 303 302 302 302 302 302 303 303 303 303 303 303 303 303 303 303 303 303 302 302 301 301 300 299 298 297 296 296 295 294 294 293 293 293 292 291 290 289 287 285 283 281 279 278 278 277 277 277 276 276 276 276 276 276 275 273 271 269 268 267 266 265 264 263 263 263 264 264 265 266 267 268 269
304 305 306 308 309 309 309 308 307 305 304 303 303 303 303 303 303 303 304 304 304 305 305 305 304 304 304 304 304 303 303 302 302 302 301 301 300 298 297 296 294 293 292 292 292 292 292 291 290 289 287 286 284 282 280 279 279 278 278 278 277 277 277 277 277 276 275 274 273 271 268 267 265 263 262 261 261 261 262 263 264 265 267 268 270
306 307 309 310 310 309 308 307 306 305 304 303 303 304 304 305 305 305 305 305 305 306 306 306 306 306 306 305 304 304 304 304 305 305 304 304 303 301 299 297 296 294 293 291 290 289 290 290 289 288 287 285 284 283 281 281 280 279 279 279 279 279 279 278 277 275 274 273 272 270 268 266 264 262 260 259 259 260 260 262 263 265 266 268 269
309 310 310 310 310 309 308 306 305 305 304 304 305 305 305 306 307 307 308 308 308 308 308 308 308 308 307 307 306 306 306 307 308 308 308 308 307 306 304 303 301 299 297 294 291 288 288 288 288 288 287 285 284 283 282 282 282 281 280 280 279 279 278 277 276 274 273 272 271 269 268 267 265 263 260 259 259 259 260 261 263 264 265 266 268
311 311 310 310 309 308 307 306 305 305 305 306 307 307 308 308 309 309 310 310 310 310 310 310 310 309 309 309 309 308 308 309 310 311 312 312 311 311 310 309 307 306 302 299 295 292 290 288 287 286 286 285 284 284 283 282 282 281 281 280 279 278 276 275 274 273 272 272 271 271 270 268 266 264 262 261 261 261 261 262 263 263 265 267 270
311 311 310 309 308 307 306 305 306 306 306 307 308 310 311 312 312 311 311 311 312 312 312 312 312 311 310 310 311 311 311 311 313 314 315 315 315 314 313 311 311 309 306 303 299 296 293 290 288 286 285 285 284 283 283 282 282 281 281 280 279 277 275 273 273 272 272 272 271 271 270 269 267 266 264 263 263 262 263 264 264 265 267 269 270
311 310 309 308 307 306 306 306 307 308 309 310 311 311 312 313 313 314 313 313 313 313 313 313 313 313 313 312 312 312 313 314 316 316 317 317 317 316 314 313 312 310 308 305 301 298 295 292 289 287 285 283 283 283 282 282 281 281 280 279 278 277 275 273 272 271 271 271 270 269 269 268 268 267 266 264 264 264 266 267 268 269 270 270 270
310 309 308 307 307 307 308 308 309 310 311 312 312 312 313 312 313 314 315 315 315 314 314 314 314 314 314 314 314 315 316 317 318 319 319 319 319 318 316 314 313 311 309 306 303 300 297 293 290 288 286 284 283 282 282 282 281 280 280 279 278 277 275 274 273 272 271 271 270 269 268 267 266 266 265 265 265 266 268 269 270 271 271 270 270
309 308 308 308 309 309 310 311 311 312 313 313 313 313 314 314 314 314 314 315 315 315 315 315 315 316 317 317 317 318 319 320 321 322 322 322 322 321 319 316 314 313 310 307 303 300 297 294 291 289 286 285 284 283 282 282 281 280 279 278 277 276 275 274 273 272 272 271 271 271 269 266 265 264 264 265 266 267 268 270 270 270 270 270 270
309 309 309 310 311 312 312 313 314 314 314 314 314 315 315 315 316 316 315 315 316 316 317 318 318 319 320 321 321 322 323 324 325 325 325 325 324 322 320 317 315 313 312 309 306 303 299 295 292 289 287 286 285 284 283 282 281 281 280 278 277 274 273 272 272 271 270 270 270 271 270 267 265 265 264 265 266 266 266 267 267 267 268 270 272
311 311 312 312 313 314 315 315 316 316 315 316 316 317 317 317 317 317 318 319 319 318 319 321 322 323 325 325 326 326 326 327 327 327 326 325 324 322 320 318 316 314 313 310 307 305 302 299 295 292 290 289 287 286 285 283 282 281 279 278 276 273 271 270 269 267 267 268 269 270 270 269 268 267 266 265 266 265 264 264 263 265 268 271 275
313 313 314 315 316 316 317 317 317 317 317 317 318 318 319 319 319 320 320 321 321 321 322 323 325 326 328 328 329 329 329 329 329 328 327 326 325 324 323 321 318 317 315 312 309 307 305 304 301 298 296 293 290 288 285 283 281 280 278 276 274 271 269 267 266 264 265 266 267 268 270 271 270 268 267 266 264 263 262 263 265 269 272 276 279
314 315 317 317 318 318 319 318 319 319 319 319 319 320 320 321 321 322 322 322 323 323 324 325 326 328 329 330 330 330 330 330 330 330 328 326 325 323 322 321 318 317 315 314 311 309 309 307 306 304 300 296 293 289 286 284 281 278 275 272 269 268 267 265 264 264 263 264 265 268 271 273 272 269 267 265 263 262 263 265 269 273 277 280 282
317 318 319 319 320 320 320 320 320 320 320 320 321 321 321 322 322 322 323 323 324 324 325 326 327 329 330 331 331 331 331 331 331 330 328 325 323 321 320 319 318 317 316 315 313 311 310 309 308 306 302 298 295 290 287 284 280 277 274 270 266 264 263 262 262 263 262 263 266 269 273 273 271 268 265 263 263 265 267 269 270 273 277 282 285
319 320 320 321 321 321 320 320 320 320 321 322 322 322 323 323 323 323 323 323 324 325 325 327 327 329 330 331 331 331 332 331 331 331 329 326 322 320 320 319 318 318 317 315 313 313 311 309 309 308 304 301 296 292 288 284 280 277 275 272 268 264 260 258 258 258 258 261 265 269 271 271 268 265 264 264 265 267 270 272 273 275 278 281 284
321 321 321 321 321 320 320 320 321 321 322 322 323 324 325 324 323 323 322 323 324 325 326 327 327 329 330 331 331 332 332 332 332 331 329 325 321 320 320 321 320 319 318 317 316 314 312 311 311 309 307 303 299 295 292 288 284 280 275 271 268 264 259 256 253 251 252 255 259 262 264 265 264 263 262 263 265 266 268 271 275 278 281 281 283
321 321 321 321 320 320 321 321 322 323 323 323 324 326 326 325 324 323 321 322 324 325 326 327 327 329 330 331 331 332 332 332 332 331 329 325 323 323 324 325 323 321 321 320 319 317 315 314 314 314 313 310 304 300 297 292 288 283 277 272 269 265 260 254 247 243 243 244 246 250 253 256 259 260 256 257 260 261 264 269 273 276 280 282 283
321 320 320 320 320 320 321 321 322 323 324 325 326 327 326 325 324 322 322 323 324 325 325 326 327 329 330 330 330 331 331 332 332 331 329 326 325 327 328 328 325 324 323 322 321 321 320 320 321 323 322 317 311 307 304 300 294 289 282 278 272 262 252 244 234 230 227 222 222 229 235 239 244 244 244 246 251 254 260 267 270 272 278 283 289
321 321 320 320 320 321 321 322 323 323 324 326 326 326 325 325 324 323 323 323 324 324 325 326 327 328 329 329 329 330 331 331 331 331 329 328 329 330 330 328 327 327 327 326 326 327 328 330 331 332 332 328 322 318 317 312 307 300 291 278 260 241 231 222 214 208 198 191 192 197 199 209 218 223 228 239 249 255 259 263 267 274 286 299 307
322 321 321 321 321 321 321 322 323 323 325 325 325 324 324 323 323 323 323 323 323 324 324 325 327 328 328 328 329 330 331 331 331 331 330 330 331 331 330 328 328 329 331 331 332 334 337 338 340 341 343 343 340 338 338 336 336 339 339 324 187 173 174 171 167 163 158 153 152 156 164 178 189 198 217 236 246 252 256 262 276 294 309 319 323
322 321 321 320 320 320 320 321 321 322 323 323 322 322 322 321 321 321 321 321 322 322 323 324 326 327 327 328 329 331 332 332 332 331 331 331 331 331 331 330 331 333 334 335 338 341 344 346 349 352 356 1 6 14 22 30 40 52 62 75 89 98 110 120 122 124 129 131 133 140 149 160 175 192 216 235 241 252 267 283 303 319 326 330 334
320 320 319 319 319 318 318 319 319 319 320 320 320 320 320 319 319 319 319 320 320 320 322 324 326 326 327 328 330 332 333 333 332 331 331 331 332 333 334 335 335 337 339 342 346 349 351 354 359 5 12 21 33 46 55 59 65 71 76 83 91 97 102 108 110 114 121 127 132 139 148 162 184 201 219 236 250 274 299 319 332 341 344 348 356
316 316 316 316 316 316 316 316 316 316 317 317 317 318 318 318 318 318 318 318 318 319 322 324 325 326 327 329 331 333 334 333 332 333 333 334 336 337 339 341 342 341 344 348 353 357 0 5 11 21 32 42 52 61 66 69 74 80 83 88 94 96 100 104 108 111 118 126 133 145 161 176 189 204 226 257 287 320 340 349 354 1 8 10 11
311 312 312 312 312 313 313 313 313 313 314 314 315 315 316 316 316 316 316 317 318 320 322 324 324 326 328 330 332 334 334 334 334 336 336 338 340 341 343 345 347 347 350 355 359 4 10 18 27 37 48 55 62 68 73 76 80 84 87 90 94 96 100 105 109 114 123 132 143 154 163 165 164 180 258 312 346 2 9 14 17 19 20 18 16
307 307 308 308 309 309 310 310 310 311 311 312 312 313 314 314 314 315 315 316 318 320 322 323 324 326 329 331 333 334 335 335 336 338 340 341 343 344 345 347 350 354 360 4 8 14 23 32 41 49 57 63 68 74 79 82 85 87 89 91 94 97 101 106 112 119 129 137 137 137 131 120 109 94 43 28 30 28 25 30 34 31 24 21 24
303 304 304 305 306 306 307 308 308 309 310 310 310 311 311 312 313 313 314 316 318 320 321 323 324 327 330 333 334 335 336 336 339 342 344 346 346 347 348 350 354 2 10 17 22 29 37 44 51 57 63 68 73 79 83 84 86 88 89 91 93 95 99 106 110 112 115 114 110 107 101 92 86 81 65 47 43 44 42 40 39 35 29 29 33